Погода в Грабцеве

Россия / Калужская область     54°33′59″N   36°22′15″E
темп.,
°C
ветер,
м/с
пор.,
м/с
влажн.,
%
обл.,
%
осадки,
мм/ч
давл.,
гПа
погр.,
м
20 сентября, пн
пн2000:00+6в81594100 1.9 1012900
03:00+7в61295100 2.1 1011775
06:00+7в71394100 0.4 1010747
09:00+7в71394100 0.7 1010712
12:00+7в81394100 0.1 1011754
15:00+7в81494100 0.1 1011646
18:00+6в71495100 4.1 1011616
21:00+6в71395100 8.3 1012629
21 сентября, вт
вт2100:00+6в61296100 1.6 1011513
03:00+6в51096100 2.4 1011478
06:00+7в5997100 0.1 1010412
09:00+7в51097100 1.1 1010480
12:00+8вюв3696100 0.3 1011444
15:00+9юв2390100 0.5 1011453
18:00+9всв1193100 0.3 101131
21:00+8св129788 0.5 101183
22 сентября, ср
ср2200:00+8всв2498100 0.1 1011239
03:00+7св2498100 0.3 1011244
06:00+7св2497100 0.0 1011255
09:00+7ссв2395100 0.1 1011281
12:00+8с229199 0.0 1012402
15:00+8с3387100 0.1 1012569
18:00+7с2392100 0.0 1013275
21:00+7св2395100 0.0 1013245
23 сентября, чт
чт2300:00+7св2395100 0.0 1014189
03:00+6св1396100 0.0 1013116
06:00+6св129699 0.0 101495
09:00+7св1392100 0.1 1014206
12:00+7всв1296100 0.8 1014213
15:00+9ююз2384100 1.3 1014438
18:00+8ююв2386100 0.8 101475
21:00+7юв3792100 1.0 1014303
24 сентября, пт
пт2400:00+7ююв2693100 0.4 1014312
03:00+6ююв3694100 0.7 1013288
06:00+6ююв3794100 0.2 1013334
09:00+7ю3792100 0.4 1012374
12:00+9ю4778100 0.6 1010982
15:00+10ююз596699 1.1 10091395
18:00+8ю4976100 0.2 1008762
21:00+6ю5891100 0.8 1008944